Weather History for PHKO - December, 2012

Change the Weather History Date:

Sunday, December 23, 2012

  Actual Average Record
Temperature  
Mean Temperature 73 °F -  
Max Temperature 80 °F 79 °F 86 °F (1988)
Min Temperature 66 °F 68 °F 62 °F (1983)
Cooling Degree Days 8    
Growing Degree Days 23 (Base 50)    
Moisture  
Dew Point 60 °F    
Average Humidity 61    
Maximum Humidity 71    
Minimum Humidity 49    
Precipitation  
Precipitation 0.00 in - - ()
Sea Level Pressure  
Sea Level Pressure 29.98 in    
Wind  
Wind Speed 6 mph (ESE)    
Max Wind Speed 10 mph    
Max Gust Speed -    
Visibility 10 miles    
Events      
Averages and records for this station are not official NWS values.
T = Trace of Precipitation, MM = Missing Value Source: NWS Daily Summary

Daily Weather History Graph

Daily Weather History Graph

Search for Another Location

Airport or City:

Trip Planner

Search our weather history database for the weather conditions in past years. The results will help you decide how hot, cold, wet, or windy it might be!

Date:

Astronomy

Dec. 23, 2012 Rise Set
Actual Time 6:55 AM HST 5:51 PM HST
Civil Twilight 6:31 AM HST 6:15 PM HST
Nautical Twilight 6:03 AM HST 6:43 PM HST
Astronomical Twilight 5:36 AM HST 7:10 PM HST
Moon 2:36 PM HST (12/23) 3:03 AM HST (12/23)
Length of Visible Light 11h 44m
Length of Day
10h 56m
Waxing Gibbous, 83% of the Moon is Illuminated
Dec 23
Waxing Gibbous
Dec 28
Full
Jan 4
Last Quarter
Jan 11
New
Jan 18
First Quarter

Hourly Weather History & Observations

Time (HST) Temp. Heat Index Dew Point Humidity Pressure Visibility Wind Dir Wind Speed Gust Speed Precip Events Conditions
12:53 AM 70.0 °F - 57.0 °F 63% 30.02 in 10.0 mi ENE 4.6 mph - N/A   Partly Cloudy
1:53 AM 70.0 °F - 57.9 °F 65% 30.01 in 10.0 mi ENE 5.8 mph - N/A   Clear
2:53 AM 69.1 °F - 57.0 °F 65% 29.99 in 10.0 mi ENE 4.6 mph - N/A   Clear
3:53 AM 69.1 °F - 55.0 °F 61% 29.98 in 10.0 mi NE 6.9 mph - N/A   Clear
4:53 AM 69.1 °F - 57.0 °F 65% 29.98 in 10.0 mi NNE 5.8 mph - N/A   Clear
5:53 AM 66.9 °F - 54.0 °F 63% 29.99 in 10.0 mi SE 3.5 mph - N/A   Clear
6:53 AM 66.0 °F - 51.1 °F 59% 30.00 in 10.0 mi East 5.8 mph - N/A   Clear
7:53 AM 71.1 °F - 51.1 °F 49% 30.02 in 10.0 mi ESE 8.1 mph - N/A   Clear
8:53 AM 77.0 °F - 59.0 °F 54% 30.03 in 10.0 mi SE 4.6 mph - N/A   Clear
9:53 AM 78.1 °F - 60.1 °F 54% 30.03 in 10.0 mi SW 6.9 mph - N/A   Clear
10:53 AM 80.1 °F 80.9 °F 60.1 °F 50% 30.01 in 10.0 mi SW 9.2 mph - N/A   Clear
11:53 AM 80.1 °F 80.9 °F 60.1 °F 50% 29.99 in 10.0 mi SSW 10.4 mph - N/A   Clear
12:53 PM 79.0 °F - 62.1 °F 56% 29.96 in 10.0 mi SSW 10.4 mph - N/A   Clear
1:53 PM 79.0 °F - 62.1 °F 56% 29.92 in 10.0 mi SSW 8.1 mph - N/A   Clear
2:53 PM 79.0 °F - 63.0 °F 58% 29.91 in 10.0 mi WSW 8.1 mph - N/A   Clear
3:53 PM 79.0 °F - 64.0 °F 60% 29.92 in 10.0 mi West 8.1 mph - N/A   Clear
4:53 PM 78.1 °F - 63.0 °F 60% 29.93 in 10.0 mi WNW 6.9 mph - N/A   Clear
5:53 PM 75.9 °F - 64.9 °F 69% 29.95 in 10.0 mi NW 8.1 mph - N/A   Partly Cloudy
6:53 PM 75.9 °F - 64.9 °F 69% 29.96 in 10.0 mi North 8.1 mph - N/A   Partly Cloudy
7:53 PM 75.0 °F - 64.0 °F 69% 29.97 in 10.0 mi North 5.8 mph - N/A   Scattered Clouds
8:53 PM 75.0 °F - 64.9 °F 71% 29.99 in 10.0 mi NNW 3.5 mph - N/A   Clear
9:53 PM 73.0 °F - 63.0 °F 71% 29.99 in 10.0 mi ESE 6.9 mph - N/A   Mostly Cloudy
10:53 PM 73.0 °F - 62.1 °F 68% 29.99 in 10.0 mi SE 6.9 mph - N/A   Mostly Cloudy
11:53 PM 72.0 °F - 60.1 °F 66% 29.99 in 10.0 mi SE 5.8 mph - N/A   Clear